TimeCDT,TemperatureF,Dew PointF,Humidity,Sea Level PressureIn,VisibilityMPH,Wind Direction,Wind SpeedMPH,Gust SpeedMPH,PrecipitationIn,Events,Conditions,WindDirDegrees,DateUTC
12:43 AM,80.6,68.0,65,29.92,10.0,NW,13.8,-,N/A,Thunderstorm,Thunderstorm,310,2013-09-20 05:43:00
12:51 AM,79.0,66.9,66,29.88,10.0,NW,13.8,-,N/A,Thunderstorm,Thunderstorm,310,2013-09-20 05:51:00
1:35 AM,71.6,68.0,88,29.93,9.0,North,8.1,-,0.05,Rain-Thunderstorm,Light Thunderstorms and Rain,350,2013-09-20 06:35:00
1:51 AM,71.1,68.0,90,29.89,10.0,Calm,Calm,-,0.05,Thunderstorm,Thunderstorm,0,2013-09-20 06:51:00
2:02 AM,71.6,68.0,88,29.92,10.0,Calm,Calm,-,N/A,,Overcast,0,2013-09-20 07:02:00
2:09 AM,71.6,68.0,88,29.92,5.0,NNW,4.6,-,0.00,Rain-Thunderstorm,Light Thunderstorms and Rain,340,2013-09-20 07:09:00
2:51 AM,71.1,68.0,90,29.87,10.0,SE,3.5,-,0.08,Thunderstorm,Thunderstorm,140,2013-09-20 07:51:00
3:16 AM,71.6,68.0,88,29.93,4.0,West,11.5,-,0.02,Rain-Thunderstorm,Light Thunderstorms and Rain,270,2013-09-20 08:16:00
3:24 AM,71.6,68.0,88,29.93,5.0,West,11.5,-,0.06,Rain-Thunderstorm,Light Thunderstorms and Rain,280,2013-09-20 08:24:00
3:51 AM,71.1,66.9,87,29.87,8.0,South,6.9,-,0.10,Rain-Thunderstorm,Light Thunderstorms and Rain,190,2013-09-20 08:51:00
4:08 AM,71.6,66.2,83,29.90,10.0,SSW,4.6,-,0.00,Rain,Light Rain,210,2013-09-20 09:08:00
4:51 AM,71.1,66.9,87,29.87,9.0,South,5.8,-,0.01,Rain,Light Rain,180,2013-09-20 09:51:00
5:34 AM,69.8,66.2,88,29.90,10.0,West,3.5,-,0.02,Rain,Light Rain,270,2013-09-20 10:34:00
5:51 AM,70.0,66.9,90,29.87,10.0,West,3.5,-,0.02,,Overcast,260,2013-09-20 10:51:00
6:51 AM,70.0,66.9,90,29.88,10.0,West,5.8,-,0.00,Rain,Light Rain,270,2013-09-20 11:51:00
7:29 AM,69.8,66.2,88,29.93,10.0,West,6.9,-,0.00,Rain,Light Rain,270,2013-09-20 12:29:00
7:44 AM,69.8,66.2,88,29.93,10.0,West,5.8,-,0.00,Rain,Light Rain,260,2013-09-20 12:44:00
7:51 AM,70.0,66.9,90,29.91,10.0,West,5.8,-,0.00,Rain,Light Rain,260,2013-09-20 12:51:00
8:51 AM,71.1,66.9,87,29.94,10.0,West,9.2,-,0.00,,Overcast,260,2013-09-20 13:51:00
9:51 AM,71.1,66.9,87,29.91,10.0,WSW,6.9,-,0.00,Rain,Light Rain,250,2013-09-20 14:51:00
10:25 AM,71.6,66.2,83,29.94,10.0,WSW,4.6,-,0.00,,Overcast,250,2013-09-20 15:25:00
10:51 AM,73.4,68.0,83,29.93,10.0,West,5.8,-,N/A,,Overcast,270,2013-09-20 15:51:00
11:31 AM,71.6,68.0,88,29.93,10.0,WSW,5.8,-,N/A,Rain,Light Rain,250,2013-09-20 16:31:00
11:51 AM,71.6,68.0,88,29.93,7.0,WSW,6.9,-,N/A,Rain,Light Rain,250,2013-09-20 16:51:00
12:51 PM,71.6,68.0,88,29.92,8.0,West,8.1,-,N/A,Rain,Light Rain,270,2013-09-20 17:51:00
1:51 PM,71.6,69.8,94,29.91,7.0,West,6.9,-,N/A,Rain,Light Rain,270,2013-09-20 18:51:00
2:51 PM,69.8,68.0,94,29.89,5.0,NW,10.4,-,N/A,Rain,Light Rain,310,2013-09-20 19:51:00
3:27 PM,69.8,68.0,94,29.89,9.0,NW,10.4,-,N/A,,Overcast,320,2013-09-20 20:27:00
3:51 PM,71.6,66.2,83,29.89,10.0,NW,9.2,-,N/A,,Overcast,320,2013-09-20 20:51:00
4:51 PM,69.8,64.4,83,29.88,10.0,NNW,6.9,-,N/A,,Overcast,330,2013-09-20 21:51:00
5:51 PM,69.8,62.6,78,29.88,10.0,NW,8.1,-,N/A,,Mostly Cloudy,320,2013-09-20 22:51:00
6:51 PM,68.0,62.6,83,29.89,10.0,NW,4.6,-,N/A,,Mostly Cloudy,310,2013-09-20 23:51:00
7:51 PM,66.2,62.6,88,29.89,10.0,NW,4.6,-,N/A,,Mostly Cloudy,310,2013-09-21 00:51:00
8:51 PM,66.2,62.6,88,29.91,10.0,Calm,Calm,-,N/A,,Mostly Cloudy,0,2013-09-21 01:51:00
9:51 PM,64.4,59.0,83,29.92,10.0,NW,10.4,-,N/A,,Overcast,320,2013-09-21 02:51:00
10:51 PM,62.6,53.6,72,29.92,10.0,NW,6.9,-,N/A,,Mostly Cloudy,320,2013-09-21 03:51:00
11:51 PM,60.8,53.6,77,29.92,10.0,NW,5.8,-,N/A,,Mostly Cloudy,310,2013-09-21 04:51:00